Regional Weather Roundup
Issued by NWS

Home | Current Version | Previous Version | Graphics & Text | Print | Product List | Glossary Off
Versions: 1 2 3 4 5 6 7 8 9 10 11 12 13 14 15 16 17 18 19 20 21 22 23 24 25 26 27 28 29 30 31 32 33 34 35 36 37 38 39 40 41 42 43 44 45 46 47 48 49 50

000
ASUS43 KDTX 241101
RWRMI
MICHIGAN HOURLY REGIONAL WEATHER ROUNDUP
NATIONAL WEATHER SERVICE DETROIT/PONTIAC MI
600 AM EST FRI FEB 24 2017

NOTE: "FAIR" INDICATES FEW OR NO CLOUDS BELOW 12,000 FEET WITH NO
SIGNIFICANT WEATHER AND/OR OBSTRUCTION TO VISIBILITY.

MIZ047>049-052>055-059>063-066>070-074>076-081>083-241200-
SOUTHEAST LOWER MICHIGAN

CITY           SKY/WX    TMP DP  RH WIND       PRES   REMARKS
ADRIAN         CLOUDY    41  41 100 SE9       29.66F
ALMA           LGT SNOW  32  31  98 NE17      29.70F WCI  21
ANN ARBOR      CLOUDY    40  40 100 E10       29.66F FOG     WCI  33
BAD AXE        MIX PCPN  34  33  97 NE9       29.76F WCI  26
CARO           CLOUDY    34  33  96 NE8G16    29.72F WCI  27
DETROIT CITY   CLOUDY    39  39 100 E8        29.69F WCI  33
DETROIT        CLOUDY    41  39  93 NE8       29.69F FOG
FLINT          CLOUDY    37  35  92 E14       29.70F WCI  28
GROSSE ILE     CLOUDY    40  39  97 NE3       29.68F
HILLSDALE      CLOUDY    39  39 100 E10G16    29.62S FOG     WCI  32
HOWELL         CLOUDY    38  36  94 N5        29.67R WCI  34

CITY           SKY/WX    TMP DP  RH WIND       PRES   REMARKS
JACKSON        CLOUDY    41  39  93 E8        29.64F
LAMBERTVILLE   CLOUDY    41  39  93 E8        29.67F FOG
LANSING        CLOUDY    37  34  89 E12       29.67F WCI  29
LAPEER         LGT RAIN  36  35  98 NE7       29.70F WCI  30
MASON          CLOUDY    38  37  97 NE7       29.67R WCI  33
MONROE         CLOUDY    42  42 100 E3        29.68F FOG
MT. CLEMENS    LGT RAIN  39  39 100 NE8       29.69F WCI  33
PONTIAC        CLOUDY    38  35  89 E8        29.67F WCI  32
PORT HOPE        N/A     35  34  96 NE13      29.76F WCI  26
PORT HURON     CLOUDY    36  36 100 NE7       29.72F WCI  30
TRI CITIES     CLOUDY    33  32  96 NE21      29.70F THUNDER WCI  21
MIDLAND        LGT SNOW  32  31  94 N7G23     29.72F WCI  26
TROY           CLOUDY    39  37  91 NE10      29.72F WCI  32
SAGINAW HB     LGT SNOW  34  32  93 E20       29.70F WCI  22
$$
MIZ043>046-050>051-056>058-064>065-071>073-077>080-241200-
SOUTHWEST LOWER MICHIGAN

CITY           SKY/WX    TMP DP  RH WIND       PRES   REMARKS
BATTLE CREEK   CLOUDY    40  39  97 E8        29.62S WCI  34
BENTON HARBOR  CLOUDY    49  46  90 E13G22    29.52F
BIG RAPIDS     LGT SNOW  32  31  94 NE9       29.69R WCI  24
COLDWATER      CLOUDY    45  45 100 SE14G20   29.59F FOG
FREMONT        LGT SNOW  35  33  93 E18G28    29.63F WCI  24
HOLLAND        CLOUDY    38  35  89 E20G30    29.57F WCI  28
GRAND RAPIDS   CLOUDY    36  35  96 E20G30    29.61F WCI  25
IONIA          CLOUDY    34  33  95 E17G23    29.66F WCI  23
KALAMAZOO      CLOUDY    43  39  86 E9        29.60F
LUDINGTON      LGT SNOW  32  32  99 NE13G18   29.66F WCI  22
MARSHALL       CLOUDY    41  40  98 NE6       29.63R
MOUNT PLEASANT FLURRIES  32  31  96 NE7       29.71F WCI  26
MUSKEGON       RAIN      36  33  89 E23       29.60S FOG     WCI  24
SOUTH HAVEN    CLOUDY    44  43  97 E13       29.54F
$$
MIZ016>042-241200-
NORTHERN LOWER MICHIGAN

CITY           SKY/WX    TMP DP  RH WIND       PRES   REMARKS
ALPENA         LGT SNOW  30  30 100 N5        29.82F FOG     WCI  25
BEAVER ISLAND  CLOUDY    30  23  73 NE12G18   29.84F WCI  21
BELLAIRE       CLOUDY    29  27  92 N8        29.83R WCI  21
CADILLAC       FLURRIES  29  27  91 NE9G18    29.70F WCI  21
CHARLEVOIX     CLOUDY    29  28  93 NE10G16   29.87R WCI  20
FRANKFORT      LGT SNOW  30  28  94 NE12      29.76F VSB 1   WCI  20
GAYLORD        LGT SNOW  28  23  81 NE12      29.77F WCI  18
GRAYLING       CLOUDY    28  26  91 NE12      29.74F WCI  18
HARBOR SPRINGS LGT SNOW  28  26  91 NE9       29.84S WCI  19
HOUGHTON LAKE  FRZ RAIN  29  26  89 NE16      29.73F FOG     WCI  17
MANISTEE       MIX PCPN  31  29  92 NE15G23   29.71F FOG     WCI  20
OSCODA         FLURRIES  32  32  97 N6        29.79F WCI  27
PELLSTON       LGT SNOW  28  23  81 NE9       29.86R WCI  19
ROGERS CITY    LGT SNOW  31  30  94 NE7       29.84F VSB 3/4 WCI  24
TRAVERSE CITY  LGT SNOW  31  27  85 NE9       29.80R FOG     WCI  23
$$
MIZ007>008-015-241200-
EASTERN UPPER MICHIGAN

CITY           SKY/WX    TMP DP  RH WIND       PRES   REMARKS
KINROSS        CLOUDY    27  20  75 N9        29.88S WCI  18
MACKINAC ISLAN CLOUDY    29  20  69 NE12G18   29.85S WCI  20
NEWBERRY       CLOUDY    28  19  69 NE9       29.87F WCI  19
S. S. MARIE    CLOUDY    29  19  66 NE7       29.88S WCI  22
MUNISING         N/A     30  22  72 NE20      29.89F WCI  17
$$
MIZ004>006-011>014-085-241200-
CENTRAL UPPER MICHIGAN

CITY           SKY/WX    TMP DP  RH WIND       PRES   REMARKS
MANISTIQUE     LGT SNOW  29  24  84 NE13      29.86F WCI  18
ESCANABA       LGT SNOW  28  27  96 NE13      29.82F VSB 3/4 WCI  17
MENOMINEE      LGT SNOW  29  28  96 NE21G30   29.77F FOG     WCI  16
SAWYER-GWINN   CLOUDY    25  21  85 NE16G22   29.84F WCI  12
$$
MIZ001>003-009>011-084-241200-
WESTERN UPPER MICHIGAN

CITY           SKY/WX    TMP DP  RH WIND       PRES   REMARKS
IRON MOUNTAIN  LGT SNOW  28  23  81 NE10G16   29.78S WCI  19
HOUGHTON       CLOUDY    21  14  74 NE9       29.91S WCI  11
COPPER HARBOR    N/A     23  17  78 E18       29.97S WCI   9
IRONWOOD       CLOUDY    23  19  85 NE12      29.89R WCI  12
$$

ABBREVIATIONS USED IN REMARKS
   TC - TEMPERATURE IN CELSIUS
  WCI - WIND CHILL INDEX
   HX - HEAT INDEX
  VSB - VISIBILITY




USA.gov is the U.S. government's official web portal to all federal, state and local government web resources and services.